Regional Weather Roundup
Issued by NWS Kansas City/Pleasant Hill, MO

Home | Current Version | Previous Version | Graphics & Text | Print | Product List | Glossary Off
Versions: 1 2 3 4 5 6 7 8 9 10 11 12 13 14 15 16 17 18 19 20 21 22 23 24 25 26 27 28 29 30 31 32 33 34 35 36 37 38 39 40 41 42 43 44 45 46 47 48 49 50

000
ASUS43 KEAX 291804
RWREAX

WEATHER ROUNDUP FOR EASTERN KANSAS AND NORTHWEST MISSOURI
NATIONAL WEATHER SERVICE KANSAS CITY/PLEASANT HILL MO
100 PM CDT FRI MAY 29 2015

KSZ040-057-103>105-MOZ028-029-037-043-291900-
...KANSAS CITY METROPOLITAN AREA...

CITY           SKY/WX    TMP DP  RH WIND       PRES   REMARKS
K.C. INTL      LGT RAIN  67  66  97 SW6       30.01S
6HR MIN TEMP:  65; 6HR MAX TEMP:  69; 6HR PCP:  0.12;

K.C. DOWNTOWN  RAIN      70  65  84 S6        30.01R
6HR MIN TEMP:  67; 6HR MAX TEMP:  71; 6HR PCP:  0.05;

LEES SUMMIT    LGT RAIN  68  65  90 SW7       30.03R
6HR MIN TEMP:  65; 6HR MAX TEMP:  71; 6HR PCP:  0.20;

OLATHE - IXD   LGT RAIN  67  66  97 S8        30.02S
6HR MIN TEMP:  64; 6HR MAX TEMP:  67; 6HR PCP:  0.17;

OLATHE - OJC   LGT RAIN  67  65  93 S7        30.01S
6HR MIN TEMP:  64; 6HR MAX TEMP:  68; 6HR PCP:  0.16;

LAWRENCE       LGT RAIN  67  65  93 S7        30.00F FOG

$$

MOZ001>008-011>017-020>025-030>033-038>040-044>046-053-054-291900-
...NORTHERN AND CENTRAL MISSOURI...

CITY           SKY/WX    TMP DP  RH WIND       PRES   REMARKS
ST. JOSEPH     RAIN      67  65  93 S9        30.00R FOG
6HR MIN TEMP:  65; 6HR MAX TEMP:  68; 6HR PCP:  0.37;

MOSBY          RAIN      70  64  83 S5        30.02R
WARRENSBURG    LGT RAIN  68  63  83 SW6       30.02F
WHITEMAN AFB   LGT RAIN  68  64  88 SW10      30.02R
CLINTON        CLOUDY    72  70  94 SW8       30.04S
SEDALIA        LGT RAIN  70  64  81 SW9       30.04R
6HR MIN TEMP:  66; 6HR MAX TEMP:  72; 6HR PCP:  0.06;

WARSAW         NOT AVBL
CHILLICOTHE      N/A     72  64  76 VRB5      30.01R
6HR MIN TEMP:  65; 6HR MAX TEMP:  74;

KIRKSVILLE     CLOUDY    73  67  81 SW7       30.01S
6HR MIN TEMP:  66; 6HR MAX TEMP:  74;


$$

MOZ041-047>049-056>058-063>065-088>090-097-291900-
...EASTERN AND SOUTHERN MISSOURI...

CITY           SKY/WX    TMP DP  RH WIND       PRES   REMARKS
ST. LOUIS INTL LGT RAIN  80  66  62 SW8       30.03F
6HR MIN TEMP:  73; 6HR MAX TEMP:  83; 6HR PCP: TRACE;

SPIRIT OF STL  MOSUNNY   82  68  62 SW13      30.00F
COLUMBIA       LGT RAIN  70  66  87 S15       30.06R
JEFFERSON CITY LGT RAIN  72  66  81 S9        30.05R
ROLLA          CLOUDY    71  66  84 SW7       30.05F
OSAGE BEACH    CLOUDY    70  64  83 W3        30.06S
SPRINGFIELD    CLOUDY    73  66  78 NE7       30.04F
BRANSON        PTSUNNY   73  68  83 NE9       30.03F THUNDER
JOPLIN         CLOUDY    71  66  84 E9        30.02S
WEST PLAINS    MOSUNNY   80  67  64 S12G18    30.06F

$$

IAZ060-094-KSZ022-034>040-054-083-096-NEZ052-066-093-291900-
...KANSAS...SOUTHEAST NEBRASKA AND IOWA...

CITY           SKY/WX    TMP DP  RH WIND       PRES   REMARKS
TOPEKA         LGT RAIN  69  67  93 S10       29.99R
6HR MIN TEMP:  67; 6HR MAX TEMP:  70; 6HR PCP:  0.05;

MANHATTAN      CLOUDY    71  66  84 S10       29.96F
EMPORIA        CLOUDY    67  65  93 SE10      29.98F
CHANUTE        LGT RAIN  69  67  93 SE8       30.01S
WICHITA        CLOUDY    73  65  75 SE8       29.98S
OMAHA          CLOUDY    75  60  59 SW9       29.92S
LINCOLN        CLOUDY    73  60  63 S7        29.94F
FALLS CITY     CLOUDY    70  65  84 S10       29.97R
LAMONI         LGT RAIN  71  64  78 SW15      29.99R
DES MOINES     LGT RAIN  75  66  73 SW14      29.93F

$$



USA.gov is the U.S. government's official web portal to all federal, state and local government web resources and services.